NOTL Lakeshore

*Note: All times are displayed in the local standard time of the station location.
**Rain - Equipment is designed to accurately record liquid precipitation; under conditions when precipitation is not in liquid form, the data displayed may not properly reflect rainfall values.

Date Max Temp
(°C)
Min Temp
(°C)
Avg Temp
(°C)
Rain (mm) Avg RH (%)
Fri, Feb 15, 2019 5.0 -3.7 1.3 1.6 74.7
Thu, Feb 14, 2019 4.2 -3.9 -0.4 0.0 68.4
Wed, Feb 13, 2019 1.3 -4.4 -2.1 0.0 75.6
Tue, Feb 12, 2019 2.4 -5.1 -2.2 0.2 87.7
Mon, Feb 11, 2019 -2.0 -4.8 -3.3 0.0 74.0
Sun, Feb 10, 2019 -3.0 -8.4 -5.3 0.0 67.7
Sat, Feb 09, 2019 -3.4 -8.9 -6.1 0.0 63.6
DateTime Avg Temp (°C) Rain (mm) RH (%)
Sat, Feb 16, 2019 16:00 -1.4 0.0 58.5
Sat, Feb 16, 2019 15:00 -1.7 0.0 60.8
Sat, Feb 16, 2019 14:00 -2.3 0.0 63.5
Sat, Feb 16, 2019 13:00 -3.1 0.0 65.4
Sat, Feb 16, 2019 12:00 -3.1 0.0 64.1
Sat, Feb 16, 2019 11:00 -2.9 0.0 63.7
Sat, Feb 16, 2019 10:00 -3.0 0.0 63.4
Sat, Feb 16, 2019 09:00 -3.3 0.0 63.6
Sat, Feb 16, 2019 08:00 -3.9 0.0 66.8
Sat, Feb 16, 2019 07:00 -3.6 0.0 64.4
Sat, Feb 16, 2019 06:00 -3.0 0.0 64.8
Sat, Feb 16, 2019 05:00 -2.4 0.0 71.2
Sat, Feb 16, 2019 04:00 -3.2 0.0 77.1
Sat, Feb 16, 2019 03:00 -3.2 0.0 75.4
Sat, Feb 16, 2019 02:00 -3.3 0.0 72.4
Sat, Feb 16, 2019 01:00 -3.5 0.0 70.9
Sat, Feb 16, 2019 00:00 -3.6 0.0 69.2
Fri, Feb 15, 2019 23:00 -3.6 0.0 68.5
Fri, Feb 15, 2019 22:00 -3.2 0.0 67.1
Fri, Feb 15, 2019 21:00 -2.7 0.0 64.4
Fri, Feb 15, 2019 20:00 -2.0 0.0 67.0
Fri, Feb 15, 2019 19:00 -1.5 0.0 66.4
Fri, Feb 15, 2019 18:00 -1.1 0.0 66.3
Fri, Feb 15, 2019 17:00 -0.3 0.0 67.2
Fri, Feb 15, 2019 16:00 0.2 0.0 69.9
Fri, Feb 15, 2019 15:00 0.6 0.0 71.1
Fri, Feb 15, 2019 14:00 1.4 0.0 71.3
Fri, Feb 15, 2019 13:00 2.6 0.0 61.8
Fri, Feb 15, 2019 12:00 2.6 0.0 70.8
Fri, Feb 15, 2019 11:00 3.1 0.0 78.4
Fri, Feb 15, 2019 10:00 4.1 0.0 85.6
Fri, Feb 15, 2019 09:00 4.2 0.0 89.1
Fri, Feb 15, 2019 08:00 4.6 0.2 89.4
Fri, Feb 15, 2019 07:00 4.3 0.2 93.1
Fri, Feb 15, 2019 06:00 4.1 0.6 91.7
Fri, Feb 15, 2019 05:00 4.0 0.6 87.9
Fri, Feb 15, 2019 04:00 4.6 0.0 74.6
Fri, Feb 15, 2019 03:00 2.7 0.0 75.3
Fri, Feb 15, 2019 02:00 2.1 0.0 78.4
Fri, Feb 15, 2019 01:00 3.1 0.0 67.7
Fri, Feb 15, 2019 00:00 3.3 0.0 63.8
Thu, Feb 14, 2019 23:00 3.4 0.0 62.3
Thu, Feb 14, 2019 22:00 1.4 0.0 73.3
Thu, Feb 14, 2019 21:00 0.8 0.0 73.8
Thu, Feb 14, 2019 20:00 0.8 0.0 69.7
Thu, Feb 14, 2019 19:00 1.2 0.0 65.1
Thu, Feb 14, 2019 18:00 1.7 0.0 60.3
Thu, Feb 14, 2019 17:00 1.6 0.0 64.1


asterix Register now to access more data! asterix